This is the latest recevied weather packets stored in our database for station/object WW4HG. If no packets are shown the sender has not sent any weather packets the latest 10 day(s).
| Time | Temp. | Humidity | Pressure | Rain* | Wind** | Luminosity | Snow |
|---|---|---|---|---|---|---|---|
| 1777928778 | 22.22° C | 33% | 1017 hPa | 0 mm | - | 44 W/m² | - |
| 1777928469 | 22.22° C | 33% | 1017 hPa | 0 mm | - | 37 W/m² | - |
| 1777928167 | 22.22° C | 33% | 1017 hPa | 0 mm | - | 38 W/m² | - |
| 1777927865 | 22.22° C | 33% | 1017 hPa | 0 mm | - | 41 W/m² | - |
| 1777927562 | 22.22° C | 33% | 1017.3 hPa | 0 mm | - | 46 W/m² | - |
| 1777927261 | 22.78° C | 32% | 1017 hPa | 0 mm | - | 44 W/m² | - |
| 1777926959 | 22.78° C | 32% | 1017 hPa | 0 mm | - | 39 W/m² | - |
| 1777926656 | 22.78° C | 34% | 1017 hPa | 0 mm | - | 42 W/m² | - |
| 1777926351 | 22.78° C | 34% | 1017.3 hPa | 0 mm | - | 47 W/m² | - |
| 1777926049 | 22.78° C | 34% | 1017.3 hPa | 0 mm | - | 43 W/m² | - |
| 1777925745 | 22.78° C | 34% | 1017.3 hPa | 0 mm | - | 43 W/m² | - |
| 1777925443 | 22.78° C | 34% | 1017.3 hPa | 0 mm | - | 47 W/m² | - |
| 1777925139 | 22.78° C | 34% | 1017.3 hPa | 0 mm | - | 52 W/m² | - |
| 1777924837 | 23.33° C | 33% | 1017.3 hPa | 0 mm | - | 51 W/m² | - |
| 1777924532 | 23.33° C | 33% | 1017.3 hPa | 0 mm | - | 70 W/m² | - |
| 1777924229 | 23.33° C | 32% | 1017.3 hPa | 0 mm | - | 50 W/m² | - |
| 1777923926 | 23.33° C | 33% | 1017.3 hPa | 0 mm | - | 49 W/m² | - |
| 1777923621 | 23.89° C | 30% | 1017.7 hPa | 0 mm | - | 51 W/m² | - |
| 1777923318 | 23.89° C | 28% | 1017.7 hPa | 0 mm | - | 54 W/m² | - |
| 1777923017 | 23.89° C | 28% | 1017.7 hPa | 0 mm | - | 58 W/m² | - |
| 1777922715 | 23.89° C | 28% | 1017.7 hPa | 0 mm | - | 57 W/m² | - |
| 1777922413 | 23.89° C | 29% | 1017.7 hPa | 0 mm | - | 60 W/m² | - |
| 1777922110 | 23.89° C | 28% | 1018 hPa | 0 mm | - | 63 W/m² | - |
| 1777921806 | 23.89° C | 28% | 1018 hPa | 0 mm | - | 55 W/m² | - |
| 1777921502 | 23.89° C | 28% | 1018 hPa | 0 mm | - | 52 W/m² | - |
* Rain latest hour (hover to see other rain measurements)
** Current wind speed in m/s (hover to see current wind gust speed)